EW4538 Weather Reports


time (UTC)temp
F
wind
direction
speed
knots
gust
knots
rain 1hr
in
rain 24hr
in
rain mn
in
humidity
%
barometer
mb
20260903151804 87 215 5.2 10.4 0.00 0.00 0.00 62 1012.7
20260903151304 87 192 5.2 13.0 0.00 0.00 0.00 63 1012.8
20260903150804 87 180 6.1 12.2 0.00 0.00 0.00 62 1012.7
20260903150304 87 172 3.5 13.0 0.00 0.00 0.00 63 1012.7
20260903144804 86 171 5.2 12.2 0.00 0.00 0.00 66 1012.7
20260903144304 85 201 4.3 7.8 0.00 0.00 0.00 67 1012.8
20260903143304 85 196 4.3 10.4 0.00 0.00 0.00 68 1012.8
20260903141304 83 195 2.6 7.8 0.00 0.00 0.00 71 1012.8
20260903140804 83 179 4.3 10.4 0.00 0.00 0.00 71 1012.9
20260903140304 83 193 4.3 13.9 0.00 0.00 0.00 72 1012.9
20260903134805 81 176 8.7 13.9 0.00 0.00 0.00 74 1012.8
20260903134304 81 176 7.8 12.2 0.00 0.00 0.00 74 1012.8
20260903133804 81 177 6.1 8.7 0.00 0.00 0.00 74 1012.9
20260903131804 80 164 4.3 11.3 0.00 0.00 0.00 76 1013.0
20260903130805 80 183 5.2 10.4 0.00 0.00 0.00 77 1012.8
20260903130304 80 167 5.2 10.4 0.00 0.00 0.00 77 1012.8
20260903124804 79 192 4.3 7.0 0.00 0.00 0.00 77 1012.7
20260903124304 79 160 4.3 8.7 0.00 0.00 0.00 77 1012.7
20260903123804 79 189 4.3 8.7 0.00 0.00 0.00 77 1012.8
20260903123304 79 178 4.3 11.3 0.00 0.00 0.00 78 1012.7
20260903121804 79 156 4.3 11.3 0.00 0.00 0.00 78 1012.6
20260903121304 79 161 7.8 13.9 0.00 0.00 0.00 78 1012.6
20260903120804 79 155 5.2 8.7 0.00 0.00 0.00 78 1012.5
20260903120304 79 157 5.2 12.2 0.00 0.00 0.00 78 1012.4
20260903114304 79 185 4.3 7.8 0.00 0.00 0.00 78 1012.4
20260903113304 79 157 5.2 10.4 0.00 0.00 0.00 78 1012.4
20260903111804 79 155 4.3 10.4 0.00 0.00 0.00 78 1012.2
20260903111305 79 173 5.2 8.7 0.00 0.00 0.00 78 1012.2
20260903110304 79 165 5.2 12.2 0.00 0.00 0.00 78 1012.2
20260903104806 79 185 4.3 8.7 0.00 0.00 0.00 78 1012.2
20260903104305 79 157 3.5 7.0 0.00 0.00 0.00 78 1012.1
20260903103805 79 175 2.6 8.7 0.00 0.00 0.00 78 1012.0
20260903103304 79 155 6.1 11.3 0.00 0.00 0.00 78 1012.0
20260903101804 79 173 5.2 7.8 0.00 0.00 0.00 78 1012.0
20260903101304 79 170 5.2 8.7 0.00 0.00 0.00 78 1012.1
20260903100805 79 169 4.3 7.8 0.00 0.00 0.00 78 1012.1
20260903100305 79 168 3.5 11.3 0.00 0.00 0.00 78 1012.0
20260903094804 79 161 5.2 7.8 0.00 0.00 0.00 78 1012.0
20260903094305 79 188 5.2 10.4 0.00 0.00 0.00 77 1012.1
20260903093805 79 162 4.3 7.8 0.00 0.00 0.00 77 1012.1
20260903091805 79 166 4.3 13.9 0.00 0.00 0.00 77 1012.3
20260903090804 79 162 5.2 11.3 0.00 0.00 0.00 77 1012.3
20260903090304 79 164 5.2 13.9 0.00 0.00 0.00 77 1012.3
20260903084804 79 162 5.2 10.4 0.00 0.00 0.00 76 1012.3
20260903084304 79 175 5.2 13.0 0.00 0.00 0.00 76 1012.3
20260903083804 79 163 6.1 10.4 0.00 0.00 0.00 76 1012.4
20260903083304 79 162 6.1 13.9 0.00 0.00 0.00 76 1012.4
20260903081805 80 165 4.3 10.4 0.00 0.00 0.00 75 1012.3
20260903081304 80 162 6.1 14.8 0.00 0.00 0.00 75 1012.3
20260903080804 80 165 5.2 8.7 0.00 0.00 0.00 75 1012.3
20260903074804 80 165 7.0 11.3 0.00 0.00 0.00 73 1012.4
20260903074305 80 163 7.0 12.2 0.00 0.00 0.00 73 1012.5
20260903073804 80 173 6.1 8.7 0.00 0.00 0.00 72 1012.4
20260903073304 80 167 5.2 12.2 0.00 0.00 0.00 72 1012.5
20260903071804 81 161 6.1 12.2 0.00 0.00 0.00 71 1012.5
20260903071304 81 163 6.1 12.2 0.00 0.00 0.00 70 1012.6
20260903070804 81 174 5.2 10.4 0.00 0.00 0.00 69 1012.6
20260903064804 82 170 6.1 11.3 0.00 0.00 0.00 68 1012.6
20260903064304 82 163 6.1 10.4 0.00 0.00 0.00 67 1012.8
20260903063804 82 165 7.0 10.4 0.00 0.00 0.00 67 1012.8
20260903063304 82 174 9.6 14.8 0.00 0.00 0.00 66 1012.8
20260903061805 82 161 7.0 12.2 0.00 0.00 0.00 66 1012.9
20260903060804 83 159 8.7 13.0 0.00 0.00 0.00 66 1012.8
20260903060304 83 164 6.1 15.6 0.00 0.00 0.00 65 1012.9
20260903054804 83 157 7.8 12.2 0.00 0.00 0.00 64 1012.8
20260903054304 83 166 7.8 20.9 0.00 0.00 0.00 63 1012.8
20260903053805 83 165 11.3 20.9 0.00 0.00 0.00 62 1012.7
20260903053305 83 157 8.7 18.2 0.00 0.00 0.00 62 1012.6
20260903051805 83 154 10.4 17.4 0.00 0.00 0.00 63 1012.5
20260903051304 83 154 10.4 20.0 0.00 0.00 0.00 64 1012.4
20260903050804 83 160 10.4 14.8 0.00 0.00 0.00 64 1012.3
20260903050304 83 150 10.4 13.9 0.00 0.00 0.00 63 1012.4
20260903044804 83 133 6.1 10.4 0.00 0.00 0.00 62 1012.3
20260903044304 83 140 6.1 11.3 0.00 0.00 0.00 62 1012.3
20260903043804 83 129 6.1 10.4 0.00 0.00 0.00 62 1012.3
20260903043304 84 99 5.2 13.0 0.00 0.00 0.00 61 1012.3
20260903041804 85 128 8.7 14.8 0.00 0.00 0.00 59 1012.3
20260903041304 85 131 10.4 15.6 0.00 0.00 0.00 58 1012.2
20260903040804 85 115 8.7 13.9 0.00 0.00 0.00 58 1012.2
20260903040304 85 131 12.2 20.0 0.00 0.00 0.00 57 1012.1
20260903034804 87 126 6.1 13.9 0.00 0.00 0.00 53 1012.2
20260903034305 88 120 11.3 15.6 0.00 0.00 0.00 52 1012.1
20260903033804 88 117 7.8 12.2 0.00 0.00 0.00 52 1011.9
20260903033304 88 146 5.2 13.0 0.00 0.00 0.00 51 1011.8
20260903031804 88 145 7.8 13.0 0.00 0.00 0.00 50 1011.7
20260903031305 88 126 7.0 13.0 0.00 0.00 0.00 50 1011.6
20260903030804 89 153 5.2 12.2 0.00 0.00 0.00 49 1011.6
20260903024804 89 118 4.3 8.7 0.00 0.00 0.00 48 1011.2
20260903024305 89 153 2.6 4.3 0.00 0.00 0.00 48 1011.1
20260903023804 90 123 1.7 7.0 0.00 0.00 0.00 47 1011.1
20260903021805 90 118 2.6 4.3 0.00 0.00 0.00 47 1010.9
20260903021304 90 114 2.6 7.0 0.00 0.00 0.00 46 1010.8
20260903020804 90 111 4.3 7.8 0.00 0.00 0.00 46 1010.7
20260903020304 91 91 2.6 8.7 0.00 0.00 0.00 45 1010.6
20260903014804 92 82 1.7 4.3 0.00 0.00 0.00 43 1010.3
20260903014304 92 126 2.6 4.3 0.00 0.00 0.00 43 1010.2
20260903013804 92 91 1.7 4.3 0.00 0.00 0.00 43 1010.2
20260903013304 91 96 2.6 7.0 0.00 0.00 0.00 43 1010.2
20260903011804 92 85 2.6 4.3 0.00 0.00 0.00 44 1010.3
20260903011304 92 96 4.3 8.7 0.00 0.00 0.00 44 1010.2
20260903010304 93 128 3.5 8.7 0.00 0.00 0.00 44 1010.2
20260903004804 94 93 4.3 7.8 0.00 0.00 0.00 41 1010.2
20260903004305 94 101 5.2 10.4 0.00 0.00 0.00 40 1010.3
20260903003805 95 96 5.2 7.8 0.00 0.00 0.00 40 1010.2
20260903003304 95 99 4.3 11.3 0.00 0.00 0.00 39 1010.2
20260903001805 96 149 3.5 5.2 0.00 0.00 0.00 37 1010.1
20260903001304 96 154 1.7 2.6 0.00 0.00 0.00 37 1010.1
20260903000304 96 161 3.5 7.8 0.00 0.00 0.00 36 1010.1
20260902234804 97 144 3.5 5.2 0.00 0.00 0.00 36 1010.0
20260902234304 97 151 2.6 7.8 0.00 0.00 0.00 35 1010.0
20260902233805 97 132 4.3 8.7 0.00 0.00 0.00 35 1010.0
20260902233304 97 147 4.3 7.8 0.00 0.00 0.00 35 1010.1
20260902231804 98 128 2.6 7.0 0.00 0.00 0.00 34 1010.1
20260902231304 98 161 4.3 7.8 0.00 0.00 0.00 34 1010.1
20260902230304 99 172 1.7 7.0 0.00 0.00 0.00 33 1010.0
20260902224805 98 171 1.7 5.2 0.00 0.00 0.00 34 1010.0
20260902224304 98 162 2.6 5.2 0.00 0.00 0.00 34 1010.0
20260902223304 98 153 5.2 11.3 0.00 0.00 0.00 34 1010.1
20260902221804 98 146 4.3 13.0 0.00 0.00 0.00 34 1010.2
20260902214804 102 145 1.7 2.6 0.00 0.00 0.00 32 1010.3
20260902214304 102 142 0.9 2.6 0.00 0.00 0.00 31 1010.4
20260902213805 102 142 0.9 2.6 0.00 0.00 0.00 31 1010.4
20260902213304 101 121 0.0 2.6 0.00 0.00 0.00 31 1010.4
20260902211804 100 74 1.7 4.3 0.00 0.00 0.00 33 1010.5
20260902211304 99 325 2.6 4.3 0.00 0.00 0.00 34 1010.6
20260902210804 98 44 1.7 2.6 0.00 0.00 0.00 35 1010.6
20260902210304 98 196 1.7 10.4 0.00 0.00 0.00 34 1010.8
20260902204804 97 121 4.3 7.8 0.00 0.00 0.00 36 1011.0
20260902204304 97 165 0.9 1.7 0.00 0.00 0.00 35 1011.1
20260902203805 97 165 2.6 5.2 0.00 0.00 0.00 35 1011.2
20260902203304 97 157 1.7 4.3 0.00 0.00 0.00 36 1011.2
20260902201304 96 163 5.2 7.8 0.00 0.00 0.00 37 1011.5
20260902200804 96 155 6.1 11.3 0.00 0.00 0.00 36 1011.5
20260902200304 97 196 2.6 8.7 0.00 0.00 0.00 36 1011.6
20260902194804 98 169 5.2 8.7 0.00 0.00 0.00 35 1011.8
20260902194304 99 141 3.5 7.0 0.00 0.00 0.00 35 1011.8
20260902193804 99 35 4.3 7.8 0.00 0.00 0.00 34 1011.9
20260902193304 100 46 5.2 10.4 0.00 0.00 0.00 34 1012.0
20260902191804 100 19 0.9 4.3 0.00 0.00 0.00 33 1012.2
20260902191304 99 289 0.9 2.6 0.00 0.00 0.00 32 1012.3
20260902190304 100 151 1.7 8.7 0.00 0.00 0.00 33 1012.4
20260902184804 99 324 1.7 5.2 0.00 0.00 0.00 32 1012.6
20260902184304 100 168 5.2 10.4 0.00 0.00 0.00 31 1012.7
20260902183304 100 206 4.3 10.4 0.00 0.00 0.00 33 1012.8
20260902181304 98 224 3.5 12.2 0.00 0.00 0.00 37 1013.3
20260902180804 98 141 6.1 11.3 0.00 0.00 0.00 36 1013.3
20260902180304 98 171 6.1 10.4 0.00 0.00 0.00 36 1013.4
20260902174804 98 121 6.1 10.4 0.00 0.00 0.00 36 1013.8
20260902174304 99 161 2.6 7.0 0.00 0.00 0.00 37 1013.9
20260902173804 98 251 0.9 4.3 0.00 0.00 0.00 36 1014.0
20260902173304 98 221 0.9 8.7 0.00 0.00 0.00 38 1014.1
20260902171804 97 99 2.6 7.0 0.00 0.00 0.00 38 1014.3
20260902170305 97 248 1.7 7.8 0.00 0.00 0.00 39 1014.5
20260902164804 96 198 1.7 4.3 0.00 0.00 0.00 41 1014.7
20260902164304 94 266 0.9 7.8 0.00 0.00 0.00 44 1014.7
20260902163804 94 186 2.6 8.7 0.00 0.00 0.00 43 1014.8
20260902163303 94 176 2.6 7.8 0.00 0.00 0.00 44 1014.8
20260902161804 93 164 5.2 7.8 0.00 0.00 0.00 44 1014.9
20260902160804 92 230 0.9 2.6 0.00 0.00 0.00 48 1015.0
20260902160304 91 219 3.5 7.8 0.00 0.00 0.00 46 1015.0
20260902154804 90 212 1.7 4.3 0.00 0.00 0.00 50 1015.0
20260902154304 89 336 2.6 8.7 0.00 0.00 0.00 51 1015.0
20260902153804 89 302 3.5 7.8 0.00 0.00 0.00 52 1015.0